Time,TemperatureF,DewpointF,PressureIn,WindDirection,WindDirectionDegrees,WindSpeedMPH,WindSpeedGustMPH,Humidity,HourlyPrecipIn,Conditions,Clouds,dailyrainin,SolarRadiationWatts/m^2,SoftwareType,DateUTC
2013-02-12 00:00:00,42.8,27.3,30.07,East,90,0.0,0.0,54,0.00,CLR,OVC,0.00,0.0,WeatherDisplay:10.37,2013-02-12 08:00:00,
2013-02-12 00:05:00,42.8,27.3,30.07,NNW,338,0.0,0.0,54,0.00,CLR,OVC,0.00,0.0,WeatherDisplay:10.37,2013-02-12 08:05:00,
2013-02-12 00:10:00,42.6,27.6,30.07,ENE,68,0.0,0.0,55,0.00,CLR,OVC,0.00,0.0,WeatherDisplay:10.37,2013-02-12 08:10:00,
2013-02-12 00:15:00,42.6,28.0,30.07,NNE,22,0.0,0.0,56,0.00,CLR,OVC,0.00,0.0,WeatherDisplay:10.37,2013-02-12 08:15:00,
2013-02-12 00:20:00,42.4,27.8,30.07,ENE,68,0.0,0.0,56,0.00,CLR,OVC,0.00,0.0,WeatherDisplay:10.37,2013-02-12 08:20:00,
2013-02-12 00:25:00,42.4,27.8,30.07,ESE,112,0.0,0.0,56,0.00,CLR,OVC,0.00,0.0,WeatherDisplay:10.37,2013-02-12 08:25:00,
2013-02-12 00:30:00,42.3,27.7,30.09,ENE,68,0.0,0.0,56,0.00,CLR,OVC,0.00,0.0,WeatherDisplay:10.37,2013-02-12 08:30:00,
2013-02-12 00:35:00,42.1,27.5,30.09,NNE,22,0.0,0.0,56,0.00,CLR,OVC,0.00,0.0,WeatherDisplay:10.37,2013-02-12 08:35:00,
2013-02-12 00:40:00,41.9,27.3,30.09,ENE,68,0.0,0.0,56,0.00,CLR,OVC,0.00,0.0,WeatherDisplay:10.37,2013-02-12 08:40:00,
2013-02-12 00:45:00,41.9,27.8,30.09,NNE,22,0.0,0.0,57,0.00,CLR,OVC,0.00,0.0,WeatherDisplay:10.37,2013-02-12 08:45:00,
2013-02-12 00:50:00,41.9,27.8,30.09,NNE,22,0.0,0.0,57,0.00,CLR,OVC,0.00,0.0,WeatherDisplay:10.37,2013-02-12 08:50:00,
2013-02-12 00:55:00,41.7,27.6,30.09,ENE,68,0.0,0.0,57,0.00,CLR,OVC,0.00,0.0,WeatherDisplay:10.37,2013-02-12 08:55:00,
2013-02-12 01:00:00,41.7,27.6,30.09,NNE,22,0.0,0.0,57,0.00,CLR,OVC,0.00,0.0,WeatherDisplay:10.37,2013-02-12 09:00:00,
2013-02-12 01:05:00,41.5,27.0,30.09,NNE,22,0.0,0.0,56,0.00,CLR,OVC,0.00,0.0,WeatherDisplay:10.37,2013-02-12 09:05:00,
2013-02-12 01:10:00,41.5,27.4,30.10,SE,135,0.0,0.0,57,0.00,CLR,OVC,0.00,0.0,WeatherDisplay:10.37,2013-02-12 09:10:00,
2013-02-12 01:15:00,41.4,27.3,30.10,ESE,112,0.0,0.0,57,0.00,CLR,OVC,0.00,0.0,WeatherDisplay:10.37,2013-02-12 09:15:00,
2013-02-12 01:20:00,41.4,27.3,30.10,East,90,0.0,0.0,57,0.00,CLR,OVC,0.00,0.0,WeatherDisplay:10.37,2013-02-12 09:20:00,
2013-02-12 01:25:00,41.2,27.1,30.10,South,180,0.0,0.0,57,0.00,CLR,OVC,0.00,0.0,WeatherDisplay:10.37,2013-02-12 09:25:00,
2013-02-12 01:30:00,41.2,27.1,30.10,ENE,68,0.0,0.0,57,0.00,CLR,OVC,0.00,0.0,WeatherDisplay:10.37,2013-02-12 09:30:00,
2013-02-12 01:35:00,41.0,26.9,30.10,NE,45,0.0,0.0,57,0.00,CLR,OVC,0.00,0.0,WeatherDisplay:10.37,2013-02-12 09:35:00,
2013-02-12 01:40:00,41.0,26.9,30.10,NNW,338,0.0,0.0,57,0.00,CLR,OVC,0.00,0.0,WeatherDisplay:10.37,2013-02-12 09:40:00,
2013-02-12 01:45:00,40.8,27.2,30.10,ESE,112,0.0,0.0,58,0.00,CLR,OVC,0.00,0.0,WeatherDisplay:10.37,2013-02-12 09:45:00,
2013-02-12 01:50:00,40.8,27.2,30.11,West,270,0.0,0.0,58,0.00,CLR,OVC,0.00,0.0,WeatherDisplay:10.37,2013-02-12 09:50:00,
2013-02-12 01:55:00,40.6,27.0,30.11,North,0,0.0,0.0,58,0.00,CLR,OVC,0.00,0.0,WeatherDisplay:10.37,2013-02-12 09:55:00,
2013-02-12 02:00:00,40.6,27.0,30.11,SE,135,0.0,0.0,58,0.00,CLR,OVC,0.00,0.0,WeatherDisplay:10.37,2013-02-12 10:00:00,
2013-02-12 02:05:00,40.5,26.8,30.11,NE,45,0.0,0.0,58,0.00,CLR,OVC,0.00,0.0,WeatherDisplay:10.37,2013-02-12 10:05:00,
2013-02-12 02:10:00,40.5,26.8,30.11,ENE,68,0.0,0.0,58,0.00,CLR,OVC,0.00,0.0,WeatherDisplay:10.37,2013-02-12 10:10:00,
2013-02-12 02:15:00,40.3,26.7,30.11,ENE,68,0.0,0.0,58,0.00,CLR,OVC,0.00,0.0,WeatherDisplay:10.37,2013-02-12 10:15:00,
2013-02-12 02:20:00,40.1,26.5,30.11,NE,45,0.0,0.0,58,0.00,CLR,OVC,0.00,0.0,WeatherDisplay:10.37,2013-02-12 10:20:00,
2013-02-12 02:25:00,40.1,26.9,30.11,NE,45,0.0,0.0,59,0.00,CLR,OVC,0.00,0.0,WeatherDisplay:10.37,2013-02-12 10:25:00,
2013-02-12 02:30:00,40.1,26.9,30.11,ESE,112,0.0,0.0,59,0.00,CLR,OVC,0.00,0.0,WeatherDisplay:10.37,2013-02-12 10:30:00,
2013-02-12 02:35:00,39.9,26.7,30.11,WSW,248,0.0,0.0,59,0.00,CLR,OVC,0.00,0.0,WeatherDisplay:10.37,2013-02-12 10:35:00,
2013-02-12 02:40:00,39.9,26.7,30.11,West,270,0.0,0.0,59,0.00,CLR,OVC,0.00,0.0,WeatherDisplay:10.37,2013-02-12 10:40:00,
2013-02-12 02:45:00,39.7,26.6,30.11,SE,135,0.0,0.0,59,0.00,CLR,OVC,0.00,0.0,WeatherDisplay:10.37,2013-02-12 10:45:00,
2013-02-12 02:50:00,39.7,26.6,30.12,SSE,158,0.0,0.0,59,0.00,CLR,OVC,0.00,0.0,WeatherDisplay:10.37,2013-02-12 10:50:00,
2013-02-12 02:55:00,39.7,26.6,30.12,North,0,0.0,0.0,59,0.00,CLR,OVC,0.00,0.0,WeatherDisplay:10.37,2013-02-12 10:55:00,
2013-02-12 03:00:00,39.6,26.4,30.12,ENE,68,0.0,0.0,59,0.00,CLR,OVC,0.00,0.0,WeatherDisplay:10.37,2013-02-12 11:00:00,
2013-02-12 03:05:00,39.6,26.4,30.12,ENE,68,0.0,0.0,59,0.00,CLR,OVC,0.00,0.0,WeatherDisplay:10.37,2013-02-12 11:05:00,
2013-02-12 03:10:00,39.4,26.2,30.12,NNW,338,0.0,0.0,59,0.00,CLR,OVC,0.00,0.0,WeatherDisplay:10.37,2013-02-12 11:10:00,
2013-02-12 03:15:00,39.4,26.2,30.12,ENE,68,0.0,0.0,59,0.00,CLR,OVC,0.00,0.0,WeatherDisplay:10.37,2013-02-12 11:15:00,
2013-02-12 03:20:00,39.4,26.2,30.12,ENE,68,0.0,0.0,59,0.00,CLR,OVC,0.00,0.0,WeatherDisplay:10.37,2013-02-12 11:20:00,
2013-02-12 03:25:00,39.2,26.1,30.12,ENE,68,0.0,0.0,59,0.00,CLR,OVC,0.00,0.0,WeatherDisplay:10.37,2013-02-12 11:25:00,
2013-02-12 03:30:00,39.2,26.5,30.12,NE,45,0.0,0.0,60,0.00,CLR,OVC,0.00,0.0,WeatherDisplay:10.37,2013-02-12 11:30:00,
2013-02-12 03:35:00,39.2,26.5,30.12,SW,225,0.0,0.0,60,0.00,CLR,OVC,0.00,0.0,WeatherDisplay:10.37,2013-02-12 11:35:00,
2013-02-12 03:40:00,39.0,26.3,30.12,WSW,248,0.0,0.0,60,0.00,CLR,OVC,0.00,0.0,WeatherDisplay:10.37,2013-02-12 11:40:00,
2013-02-12 03:45:00,38.8,26.1,30.12,WNW,292,0.0,0.0,60,0.00,CLR,OVC,0.00,0.0,WeatherDisplay:10.37,2013-02-12 11:45:00,
2013-02-12 03:50:00,38.8,26.1,30.13,NNE,22,0.0,0.0,60,0.00,CLR,OVC,0.00,0.0,WeatherDisplay:10.37,2013-02-12 11:50:00,
2013-02-12 03:55:00,38.8,26.5,30.13,South,180,0.0,0.0,61,0.00,CLR,OVC,0.00,0.0,WeatherDisplay:10.37,2013-02-12 11:55:00,
2013-02-12 04:00:00,38.8,26.5,30.13,South,180,0.0,0.0,61,0.00,CLR,OVC,0.00,0.0,WeatherDisplay:10.37,2013-02-12 12:00:00,
2013-02-12 04:05:00,38.8,26.5,30.13,South,180,0.0,0.0,61,0.00,CLR,OVC,0.00,0.0,WeatherDisplay:10.37,2013-02-12 12:05:00,
2013-02-12 04:10:00,38.7,26.4,30.13,NW,315,0.0,0.0,61,0.00,CLR,OVC,0.00,0.0,WeatherDisplay:10.37,2013-02-12 12:10:00,
2013-02-12 04:15:00,38.7,26.4,30.13,ESE,112,0.0,0.0,61,0.00,CLR,OVC,0.00,0.0,WeatherDisplay:10.37,2013-02-12 12:15:00,
2013-02-12 04:20:00,38.7,26.8,30.13,SE,135,0.0,0.0,62,0.00,CLR,OVC,0.00,0.0,WeatherDisplay:10.37,2013-02-12 12:20:00,
2013-02-12 04:25:00,38.5,26.6,30.13,SW,225,0.0,0.0,62,0.00,CLR,OVC,0.00,0.0,WeatherDisplay:10.37,2013-02-12 12:25:00,
2013-02-12 04:30:00,38.5,26.6,30.13,West,270,0.0,0.0,62,0.00,CLR,OVC,0.00,0.0,WeatherDisplay:10.37,2013-02-12 12:30:00,
2013-02-12 04:35:00,38.3,26.4,30.13,NW,315,0.0,0.0,62,0.00,CLR,OVC,0.00,0.0,WeatherDisplay:10.37,2013-02-12 12:35:00,
2013-02-12 04:40:00,38.3,26.4,30.13,NW,315,0.0,0.0,62,0.00,CLR,OVC,0.00,0.0,WeatherDisplay:10.37,2013-02-12 12:40:00,
2013-02-12 04:45:00,38.3,26.4,30.13,NW,315,0.0,0.0,62,0.00,CLR,OVC,0.00,0.0,WeatherDisplay:10.37,2013-02-12 12:45:00,
2013-02-12 04:50:00,38.3,26.8,30.13,NNW,338,0.0,0.0,63,0.00,CLR,OVC,0.00,0.0,WeatherDisplay:10.37,2013-02-12 12:50:00,
2013-02-12 04:55:00,38.1,26.6,30.13,NE,45,0.0,0.0,63,0.00,CLR,OVC,0.00,0.0,WeatherDisplay:10.37,2013-02-12 12:55:00,
2013-02-12 05:00:00,38.1,26.6,30.13,NNE,22,0.0,0.0,63,0.00,CLR,OVC,0.00,0.0,WeatherDisplay:10.37,2013-02-12 13:00:00,
2013-02-12 05:05:00,37.9,26.5,30.13,NNW,338,0.0,0.0,63,0.00,CLR,OVC,0.00,0.0,WeatherDisplay:10.37,2013-02-12 13:05:00,
2013-02-12 05:10:00,37.9,26.5,30.13,ENE,68,0.0,0.0,63,0.00,CLR,OVC,0.00,0.0,WeatherDisplay:10.37,2013-02-12 13:10:00,
2013-02-12 05:15:00,37.9,26.5,30.13,NW,315,0.0,0.0,63,0.00,CLR,OVC,0.00,0.0,WeatherDisplay:10.37,2013-02-12 13:15:00,
2013-02-12 05:20:00,37.8,26.3,30.13,NW,315,0.0,0.0,63,0.00,CLR,OVC,0.00,0.0,WeatherDisplay:10.37,2013-02-12 13:20:00,
2013-02-12 05:25:00,37.8,26.3,30.13,NW,315,0.0,0.0,63,0.00,CLR,OVC,0.00,0.0,WeatherDisplay:10.37,2013-02-12 13:25:00,
2013-02-12 05:30:00,37.8,26.3,30.13,NW,315,0.0,0.0,63,0.00,CLR,OVC,0.00,0.0,WeatherDisplay:10.37,2013-02-12 13:30:00,
2013-02-12 05:35:00,37.6,26.1,30.13,NW,315,0.0,0.0,63,0.00,CLR,OVC,0.00,0.0,WeatherDisplay:10.37,2013-02-12 13:35:00,
2013-02-12 05:40:00,37.6,26.5,30.13,NW,315,0.0,0.0,64,0.00,CLR,OVC,0.00,0.0,WeatherDisplay:10.37,2013-02-12 13:40:00,
2013-02-12 05:45:00,37.6,26.5,30.13,West,270,0.0,0.0,64,0.00,CLR,OVC,0.00,0.0,WeatherDisplay:10.37,2013-02-12 13:45:00,
2013-02-12 05:50:00,37.4,26.3,30.13,NW,315,0.0,0.0,64,0.00,CLR,OVC,0.00,0.0,WeatherDisplay:10.37,2013-02-12 13:50:00,
2013-02-12 05:55:00,37.4,26.3,30.13,NNW,338,0.0,0.0,64,0.00,CLR,OVC,0.00,0.0,WeatherDisplay:10.37,2013-02-12 13:55:00,
2013-02-12 06:00:00,37.4,26.3,30.13,SE,135,0.0,0.0,64,0.00,CLR,OVC,0.00,0.0,WeatherDisplay:10.37,2013-02-12 14:00:00,
2013-02-12 06:05:00,37.2,26.5,30.13,ESE,112,0.0,0.0,65,0.00,CLR,OVC,0.00,0.0,WeatherDisplay:10.37,2013-02-12 14:05:00,
2013-02-12 06:10:00,37.0,26.4,30.13,NNE,22,0.0,0.0,65,0.00,CLR,OVC,0.00,0.0,WeatherDisplay:10.37,2013-02-12 14:10:00,
2013-02-12 06:15:00,37.0,26.7,30.13,NNE,22,0.0,0.0,66,0.00,CLR,OVC,0.00,0.0,WeatherDisplay:10.37,2013-02-12 14:15:00,
2013-02-12 06:20:00,37.0,26.7,30.13,NE,45,0.0,0.0,66,0.00,CLR,OVC,0.00,0.0,WeatherDisplay:10.37,2013-02-12 14:20:00,
2013-02-12 06:25:00,37.0,26.7,30.13,ESE,112,0.0,0.0,66,0.00,CLR,OVC,0.00,0.0,WeatherDisplay:10.37,2013-02-12 14:25:00,
2013-02-12 06:30:00,36.9,26.9,30.13,ENE,68,0.0,0.0,67,0.00,CLR,OVC,0.00,0.0,WeatherDisplay:10.37,2013-02-12 14:30:00,
2013-02-12 06:35:00,36.9,26.9,30.13,NE,45,0.0,0.0,67,0.00,CLR,OVC,0.00,0.0,WeatherDisplay:10.37,2013-02-12 14:35:00,
2013-02-12 06:40:00,36.9,26.9,30.13,SSE,158,0.0,0.0,67,0.00,CLR,OVC,0.00,0.0,WeatherDisplay:10.37,2013-02-12 14:40:00,
2013-02-12 06:45:00,36.9,26.9,30.13,SSW,202,0.0,0.0,67,0.00,CLR,OVC,0.00,0.0,WeatherDisplay:10.37,2013-02-12 14:45:00,
2013-02-12 06:50:00,36.7,26.7,30.13,SW,225,0.0,0.0,67,0.00,CLR,OVC,0.00,0.0,WeatherDisplay:10.37,2013-02-12 14:50:00,
2013-02-12 06:55:00,36.7,26.7,30.13,WSW,248,0.0,0.0,67,0.00,CLR,OVC,0.00,0.0,WeatherDisplay:10.37,2013-02-12 14:55:00,
2013-02-12 07:00:00,36.7,26.7,30.13,NNW,338,0.0,0.0,67,0.00,CLR,OVC,0.00,0.0,WeatherDisplay:10.37,2013-02-12 15:00:00,
2013-02-12 07:05:00,36.7,26.7,30.13,WNW,292,0.0,0.0,67,0.00,CLR,OVC,0.00,0.0,WeatherDisplay:10.37,2013-02-12 15:05:00,
2013-02-12 07:10:00,36.7,26.4,30.13,ENE,68,0.0,0.0,66,0.00,CLR,OVC,0.00,0.0,WeatherDisplay:10.37,2013-02-12 15:10:00,
2013-02-12 07:15:00,36.5,26.6,30.13,NNW,338,0.0,0.0,67,0.00,CLR,OVC,0.00,0.0,WeatherDisplay:10.37,2013-02-12 15:15:00,
2013-02-12 07:20:00,36.7,26.7,30.13,NNE,22,0.0,0.0,67,0.00,CLR,OVC,0.00,0.0,WeatherDisplay:10.37,2013-02-12 15:20:00,
2013-02-12 07:25:00,36.5,26.6,30.13,NW,315,0.0,0.0,67,0.00,CLR,OVC,0.00,0.0,WeatherDisplay:10.37,2013-02-12 15:25:00,
2013-02-12 07:30:00,36.7,26.7,30.20,WSW,248,0.0,0.0,67,0.00,CLR,OVC,0.00,0.0,WeatherDisplay:10.37,2013-02-12 15:30:00,
2013-02-12 07:35:00,36.7,27.1,30.20,SW,225,0.0,0.0,68,0.00,CLR,OVC,0.00,0.0,WeatherDisplay:10.37,2013-02-12 15:35:00,
2013-02-12 07:40:00,36.9,27.3,30.20,WNW,292,0.0,0.0,68,0.00,CLR,OVC,0.00,0.0,WeatherDisplay:10.37,2013-02-12 15:40:00,
2013-02-12 07:45:00,37.0,27.8,30.20,NW,315,1.2,1.2,69,0.00,CLR,OVC,0.00,0.0,WeatherDisplay:10.37,2013-02-12 15:45:00,
2013-02-12 07:50:00,37.4,28.2,30.20,NW,315,1.2,1.2,69,0.00,CLR,OVC,0.00,0.0,WeatherDisplay:10.37,2013-02-12 15:50:00,
2013-02-12 07:55:00,38.1,29.2,30.20,NW,315,2.6,2.6,70,0.00,CLR,OVC,0.00,0.0,WeatherDisplay:10.37,2013-02-12 15:55:00,
2013-02-12 08:00:00,38.5,29.9,30.20,NW,315,1.2,1.3,71,0.00,CLR,OVC,0.00,0.0,WeatherDisplay:10.37,2013-02-12 16:00:00,
2013-02-12 08:05:00,38.8,30.6,30.20,NW,315,1.2,1.2,72,0.00,CLR,OVC,0.00,0.0,WeatherDisplay:10.37,2013-02-12 16:05:00,
2013-02-12 08:10:00,39.2,30.9,30.20,NW,315,0.0,0.3,72,0.00,CLR,OVC,0.00,0.0,WeatherDisplay:10.37,2013-02-12 16:10:00,
2013-02-12 08:15:00,39.7,31.4,30.20,NW,315,1.2,1.2,72,0.00,CLR,OVC,0.00,0.0,WeatherDisplay:10.37,2013-02-12 16:15:00,
2013-02-12 08:20:00,40.3,32.3,30.20,NW,315,1.2,1.2,73,0.00,CLR,OVC,0.00,0.0,WeatherDisplay:10.37,2013-02-12 16:20:00,
2013-02-12 08:25:00,41.0,33.0,30.20,NNW,338,2.3,2.3,73,0.00,CLR,OVC,0.00,0.0,WeatherDisplay:10.37,2013-02-12 16:25:00,
2013-02-12 08:31:00,41.4,33.4,30.20,NNE,22,1.2,1.2,73,0.00,CLR,OVC,0.00,0.0,WeatherDisplay:10.37,2013-02-12 16:31:00,
2013-02-12 08:36:00,42.3,34.2,30.20,NNE,22,2.3,2.3,73,0.00,CLR,OVC,0.00,0.0,WeatherDisplay:10.37,2013-02-12 16:36:00,
2013-02-12 08:41:00,42.6,34.6,30.20,NW,315,2.3,2.3,73,0.00,CLR,OVC,0.00,0.0,WeatherDisplay:10.37,2013-02-12 16:41:00,
2013-02-12 08:46:00,43.7,34.6,30.20,NNE,22,4.6,4.6,70,0.00,CLR,OVC,0.00,0.0,WeatherDisplay:10.37,2013-02-12 16:46:00,
2013-02-12 08:51:00,44.2,35.1,30.20,NNW,338,3.5,3.5,70,0.00,CLR,OVC,0.00,0.0,WeatherDisplay:10.37,2013-02-12 16:51:00,
2013-02-12 08:56:00,45.1,35.6,30.20,NNE,22,3.5,3.5,69,0.00,CLR,OVC,0.00,0.0,WeatherDisplay:10.37,2013-02-12 16:56:00,
2013-02-12 09:01:00,45.7,35.7,30.20,NNE,22,3.5,3.5,68,0.00,CLR,OVC,0.00,0.0,WeatherDisplay:10.37,2013-02-12 17:01:00,
2013-02-12 09:06:00,46.6,35.4,30.20,NNE,22,4.0,4.0,65,0.00,CLR,OVC,0.00,0.0,WeatherDisplay:10.37,2013-02-12 17:06:00,
2013-02-12 09:11:00,46.9,35.4,30.20,NE,45,2.3,2.3,64,0.00,CLR,OVC,0.00,0.0,WeatherDisplay:10.37,2013-02-12 17:11:00,
2013-02-12 09:16:00,47.7,35.3,30.20,NNW,338,2.3,2.3,62,0.00,CLR,OVC,0.00,0.0,WeatherDisplay:10.37,2013-02-12 17:16:00,
2013-02-12 09:21:00,48.2,35.0,30.20,NNW,338,2.3,2.3,60,0.00,CLR,OVC,0.00,0.0,WeatherDisplay:10.37,2013-02-12 17:21:00,
2013-02-12 09:26:00,48.9,35.2,30.20,NNE,22,2.3,2.3,59,0.00,CLR,OVC,0.00,0.0,WeatherDisplay:10.37,2013-02-12 17:26:00,
2013-02-12 09:31:00,49.1,34.9,30.20,ENE,68,3.5,3.5,58,0.00,CLR,OVC,0.00,0.0,WeatherDisplay:10.37,2013-02-12 17:31:00,
2013-02-12 09:36:00,50.0,35.8,30.20,SSW,202,3.5,3.5,58,0.00,CLR,OVC,0.00,0.0,WeatherDisplay:10.37,2013-02-12 17:36:00,
2013-02-12 09:41:00,50.2,35.5,30.20,NW,315,4.6,4.6,57,0.00,CLR,OVC,0.00,0.0,WeatherDisplay:10.37,2013-02-12 17:41:00,
2013-02-12 09:46:00,50.5,35.0,30.20,NW,315,3.5,3.5,55,0.00,CLR,OVC,0.00,0.0,WeatherDisplay:10.37,2013-02-12 17:46:00,
2013-02-12 09:51:00,50.9,35.3,30.20,NNW,338,2.3,2.4,55,0.00,CLR,OVC,0.00,0.0,WeatherDisplay:10.37,2013-02-12 17:51:00,
2013-02-12 09:56:00,51.8,35.7,30.20,SSW,202,2.3,2.4,54,0.00,CLR,OVC,0.00,0.0,WeatherDisplay:10.37,2013-02-12 17:56:00,
2013-02-12 10:01:00,52.0,35.4,30.20,NW,315,2.3,2.3,53,0.00,CLR,OVC,0.00,0.0,WeatherDisplay:10.37,2013-02-12 18:01:00,
2013-02-12 10:06:00,52.2,34.6,30.20,NW,315,3.5,3.5,51,0.00,CLR,OVC,0.00,0.0,WeatherDisplay:10.37,2013-02-12 18:06:00,
2013-02-12 10:11:00,52.7,35.1,30.20,West,270,2.3,2.3,51,0.00,CLR,OVC,0.00,0.0,WeatherDisplay:10.37,2013-02-12 18:11:00,
2013-02-12 10:16:00,53.1,34.4,30.20,NW,315,2.3,2.3,49,0.00,CLR,OVC,0.00,0.0,WeatherDisplay:10.37,2013-02-12 18:16:00,
2013-02-12 10:21:00,53.6,34.9,30.20,WSW,248,2.6,2.6,49,0.00,CLR,OVC,0.00,0.0,WeatherDisplay:10.37,2013-02-12 18:21:00,
2013-02-12 10:26:00,54.1,35.4,30.20,WSW,248,1.2,1.6,49,0.00,CLR,OVC,0.00,0.0,WeatherDisplay:10.37,2013-02-12 18:26:00,
2013-02-12 10:31:00,54.5,35.2,30.20,WSW,248,2.3,2.3,48,0.00,CLR,OVC,0.00,0.0,WeatherDisplay:10.37,2013-02-12 18:31:00,
2013-02-12 10:36:00,54.9,35.0,30.20,SSE,158,3.5,3.5,47,0.00,CLR,OVC,0.00,0.0,WeatherDisplay:10.37,2013-02-12 18:36:00,
2013-02-12 10:41:00,55.4,34.9,30.20,WSW,248,2.3,2.3,46,0.00,CLR,OVC,0.00,0.0,WeatherDisplay:10.37,2013-02-12 18:41:00,
2013-02-12 10:46:00,55.8,34.7,30.20,WSW,248,2.3,2.3,45,0.00,CLR,OVC,0.00,0.0,WeatherDisplay:10.37,2013-02-12 18:46:00,
2013-02-12 10:51:00,55.8,34.7,30.20,West,270,2.3,2.3,45,0.00,CLR,OVC,0.00,0.0,WeatherDisplay:10.37,2013-02-12 18:51:00,
2013-02-12 10:56:00,55.6,33.4,30.20,NNE,22,4.6,4.6,43,0.00,CLR,OVC,0.00,0.0,WeatherDisplay:10.37,2013-02-12 18:56:00,
2013-02-12 11:01:00,56.1,34.5,30.20,NW,315,2.3,2.3,44,0.00,CLR,OVC,0.00,0.0,WeatherDisplay:10.37,2013-02-12 19:01:00,
2013-02-12 11:06:00,55.9,33.2,30.20,WNW,292,3.5,3.5,42,0.00,CLR,OVC,0.00,0.0,WeatherDisplay:10.37,2013-02-12 19:06:00,
2013-02-12 11:11:00,56.1,33.3,30.20,WNW,292,3.5,3.5,42,0.00,CLR,OVC,0.00,0.0,WeatherDisplay:10.37,2013-02-12 19:11:00,
2013-02-12 11:16:00,56.8,34.0,30.20,WNW,292,3.5,3.5,42,0.00,CLR,OVC,0.00,0.0,WeatherDisplay:10.37,2013-02-12 19:16:00,
2013-02-12 11:21:00,56.8,32.8,30.20,NNE,22,2.3,2.3,40,0.00,CLR,OVC,0.00,0.0,WeatherDisplay:10.37,2013-02-12 19:21:00,
2013-02-12 11:26:00,57.4,33.2,30.20,NNE,22,1.2,1.2,40,0.00,CLR,OVC,0.00,0.0,WeatherDisplay:10.37,2013-02-12 19:26:00,
2013-02-12 11:31:00,57.9,33.7,30.23,ENE,68,2.8,2.8,40,0.00,CLR,OVC,0.00,0.0,WeatherDisplay:10.37,2013-02-12 19:31:00,
2013-02-12 11:36:00,58.3,33.4,30.23,ESE,112,2.3,2.3,39,0.00,CLR,OVC,0.00,0.0,WeatherDisplay:10.37,2013-02-12 19:36:00,
2013-02-12 11:41:00,58.3,32.1,30.23,NW,315,2.3,2.3,37,0.00,CLR,OVC,0.00,0.0,WeatherDisplay:10.37,2013-02-12 19:41:00,
2013-02-12 11:46:00,58.5,32.3,30.23,West,270,2.3,2.3,37,0.00,CLR,OVC,0.00,0.0,WeatherDisplay:10.37,2013-02-12 19:46:00,
2013-02-12 11:51:00,58.6,32.4,30.23,West,270,2.3,2.3,37,0.00,CLR,OVC,0.00,0.0,WeatherDisplay:10.37,2013-02-12 19:51:00,
2013-02-12 11:56:00,59.2,32.9,30.23,West,270,1.2,1.6,37,0.00,CLR,OVC,0.00,0.0,WeatherDisplay:10.37,2013-02-12 19:56:00,
2013-02-12 12:01:00,59.7,32.7,30.23,West,270,2.3,2.3,36,0.00,CLR,OVC,0.00,0.0,WeatherDisplay:10.37,2013-02-12 20:01:00,
2013-02-12 12:06:00,59.2,30.1,30.23,NW,315,2.3,2.3,33,0.00,CLR,OVC,0.00,0.0,WeatherDisplay:10.37,2013-02-12 20:06:00,
2013-02-12 12:11:00,59.5,31.1,30.22,West,270,3.5,3.5,34,0.00,CLR,OVC,0.00,0.0,WeatherDisplay:10.37,2013-02-12 20:11:00,
2013-02-12 12:16:00,59.7,30.5,30.22,NW,315,4.6,4.6,33,0.00,CLR,OVC,0.00,0.0,WeatherDisplay:10.37,2013-02-12 20:16:00,
2013-02-12 12:21:00,60.4,31.9,30.22,South,180,3.5,3.5,34,0.00,CLR,OVC,0.00,0.0,WeatherDisplay:10.37,2013-02-12 20:21:00,
2013-02-12 12:26:00,59.7,28.2,30.22,NNE,22,3.5,3.5,30,0.00,CLR,OVC,0.00,0.0,WeatherDisplay:10.37,2013-02-12 20:26:00,
2013-02-12 12:31:00,59.9,29.2,30.22,South,180,3.5,3.5,31,0.00,CLR,OVC,0.00,0.0,WeatherDisplay:10.37,2013-02-12 20:31:00,
2013-02-12 12:36:00,61.0,31.6,30.22,SSW,202,3.5,3.5,33,0.00,CLR,OVC,0.00,0.0,WeatherDisplay:10.37,2013-02-12 20:36:00,
2013-02-12 12:41:00,61.0,31.6,30.22,West,270,2.8,2.8,33,0.00,CLR,OVC,0.00,0.0,WeatherDisplay:10.37,2013-02-12 20:41:00,
2013-02-12 12:46:00,60.6,29.0,30.22,NW,315,4.6,4.6,30,0.00,CLR,OVC,0.00,0.0,WeatherDisplay:10.37,2013-02-12 20:46:00,
2013-02-12 12:51:00,60.6,29.8,30.20,NNW,338,3.5,3.5,31,0.00,CLR,OVC,0.00,0.0,WeatherDisplay:10.37,2013-02-12 20:51:00,
2013-02-12 12:56:00,60.4,30.4,30.20,NW,315,4.6,4.6,32,0.00,CLR,OVC,0.00,0.0,WeatherDisplay:10.37,2013-02-12 20:56:00,
2013-02-12 13:01:00,60.8,32.2,30.20,WSW,248,4.6,4.6,34,0.00,CLR,OVC,0.00,0.0,WeatherDisplay:10.37,2013-02-12 21:01:00,
2013-02-12 13:06:00,60.8,30.7,30.20,NNW,338,4.6,4.6,32,0.00,CLR,OVC,0.00,0.0,WeatherDisplay:10.37,2013-02-12 21:06:00,
2013-02-12 13:11:00,61.0,31.6,30.19,NNW,338,3.5,3.5,33,0.00,CLR,OVC,0.00,0.0,WeatherDisplay:10.37,2013-02-12 21:11:00,
2013-02-12 13:16:00,61.2,31.0,30.19,North,0,3.6,3.6,32,0.00,CLR,OVC,0.00,0.0,WeatherDisplay:10.37,2013-02-12 21:16:00,
2013-02-12 13:21:00,61.2,31.0,30.19,NNE,22,3.5,3.5,32,0.00,CLR,OVC,0.00,0.0,WeatherDisplay:10.37,2013-02-12 21:21:00,
2013-02-12 13:26:00,61.3,31.2,30.19,NNE,22,3.5,3.5,32,0.00,CLR,OVC,0.00,0.0,WeatherDisplay:10.37,2013-02-12 21:26:00,
2013-02-12 13:31:00,61.3,30.4,30.18,NW,315,4.6,4.6,31,0.00,CLR,OVC,0.00,0.0,WeatherDisplay:10.37,2013-02-12 21:31:00,
2013-02-12 13:36:00,61.3,30.4,30.18,NW,315,4.6,4.6,31,0.00,CLR,OVC,0.00,0.0,WeatherDisplay:10.37,2013-02-12 21:36:00,
2013-02-12 13:41:00,61.7,30.7,30.18,NW,315,4.6,4.6,31,0.00,CLR,OVC,0.00,0.0,WeatherDisplay:10.37,2013-02-12 21:41:00,
2013-02-12 13:46:00,61.3,29.6,30.18,NNW,338,2.3,2.6,30,0.00,CLR,OVC,0.00,0.0,WeatherDisplay:10.37,2013-02-12 21:46:00,
2013-02-12 13:51:00,61.7,29.9,30.18,NW,315,4.6,4.6,30,0.00,CLR,OVC,0.00,0.0,WeatherDisplay:10.37,2013-02-12 21:51:00,
2013-02-12 13:56:00,61.2,29.5,30.18,NNW,338,3.5,3.5,30,0.00,CLR,OVC,0.00,0.0,WeatherDisplay:10.37,2013-02-12 21:56:00,
2013-02-12 14:01:00,61.2,29.5,30.18,WNW,292,2.5,2.5,30,0.00,CLR,OVC,0.00,0.0,WeatherDisplay:10.37,2013-02-12 22:01:00,
2013-02-12 14:06:00,61.5,29.8,30.18,NNW,338,3.5,3.5,30,0.00,CLR,OVC,0.00,0.0,WeatherDisplay:10.37,2013-02-12 22:06:00,
2013-02-12 14:11:00,61.3,28.8,30.17,SSE,158,1.3,2.0,29,0.00,CLR,OVC,0.00,0.0,WeatherDisplay:10.37,2013-02-12 22:11:00,
2013-02-12 14:16:00,61.5,29.8,30.17,WNW,292,4.9,4.9,30,0.00,CLR,OVC,0.00,0.0,WeatherDisplay:10.37,2013-02-12 22:16:00,
2013-02-12 14:21:00,61.2,26.9,30.17,NNW,338,4.6,4.6,27,0.00,CLR,OVC,0.00,0.0,WeatherDisplay:10.37,2013-02-12 22:21:00,
2013-02-12 14:26:00,61.7,29.1,30.17,South,180,2.3,2.3,29,0.00,CLR,OVC,0.00,0.0,WeatherDisplay:10.37,2013-02-12 22:26:00,
2013-02-12 14:31:00,62.1,29.4,30.16,NW,315,2.3,2.3,29,0.00,CLR,OVC,0.00,0.0,WeatherDisplay:10.37,2013-02-12 22:31:00,
2013-02-12 14:36:00,61.7,28.2,30.16,SW,225,3.2,3.2,28,0.00,CLR,OVC,0.00,0.0,WeatherDisplay:10.37,2013-02-12 22:36:00,
2013-02-12 14:41:00,61.5,28.1,30.16,WSW,248,4.6,4.6,28,0.00,CLR,OVC,0.00,0.0,WeatherDisplay:10.37,2013-02-12 22:41:00,
2013-02-12 14:46:00,61.9,29.2,30.16,SW,225,2.6,2.6,29,0.00,CLR,OVC,0.00,0.0,WeatherDisplay:10.37,2013-02-12 22:46:00,
2013-02-12 14:51:00,61.7,28.2,30.16,WSW,248,3.5,3.5,28,0.00,CLR,OVC,0.00,0.0,WeatherDisplay:10.37,2013-02-12 22:51:00,
2013-02-12 14:56:00,61.5,27.2,30.16,NW,315,2.3,2.3,27,0.00,CLR,OVC,0.00,0.0,WeatherDisplay:10.37,2013-02-12 22:56:00,
2013-02-12 15:01:00,61.3,27.0,30.16,WNW,292,2.3,2.3,27,0.00,CLR,OVC,0.00,0.0,WeatherDisplay:10.37,2013-02-12 23:01:00,
2013-02-12 15:06:00,61.5,28.1,30.16,SW,225,4.6,4.6,28,0.00,CLR,OVC,0.00,0.0,WeatherDisplay:10.37,2013-02-12 23:06:00,
2013-02-12 15:11:00,61.7,28.2,30.16,East,90,1.2,1.7,28,0.00,CLR,OVC,0.00,0.0,WeatherDisplay:10.37,2013-02-12 23:11:00,
2013-02-12 15:16:00,61.7,28.2,30.16,WSW,248,2.6,2.6,28,0.00,CLR,OVC,0.00,0.0,WeatherDisplay:10.37,2013-02-12 23:16:00,
2013-02-12 15:21:00,61.7,27.3,30.16,SSE,158,4.6,4.6,27,0.00,CLR,OVC,0.00,0.0,WeatherDisplay:10.37,2013-02-12 23:21:00,
2013-02-12 15:26:00,61.5,27.2,30.16,WSW,248,2.3,2.3,27,0.00,CLR,OVC,0.00,0.0,WeatherDisplay:10.37,2013-02-12 23:26:00,
2013-02-12 15:31:00,61.5,27.2,30.16,SSW,202,2.3,2.3,27,0.00,CLR,OVC,0.00,0.0,WeatherDisplay:10.37,2013-02-12 23:31:00,
2013-02-12 15:36:00,61.5,27.2,30.16,West,270,3.5,3.5,27,0.00,CLR,OVC,0.00,0.0,WeatherDisplay:10.37,2013-02-12 23:36:00,
2013-02-12 15:41:00,61.5,27.2,30.16,WSW,248,3.5,3.5,27,0.00,CLR,OVC,0.00,0.0,WeatherDisplay:10.37,2013-02-12 23:41:00,
2013-02-12 15:46:00,61.5,27.2,30.16,SSE,158,2.6,2.6,27,0.00,CLR,OVC,0.00,0.0,WeatherDisplay:10.37,2013-02-12 23:46:00,
2013-02-12 15:51:00,61.3,27.0,30.16,SW,225,3.5,3.5,27,0.00,CLR,OVC,0.00,0.0,WeatherDisplay:10.37,2013-02-12 23:51:00,
2013-02-12 15:56:00,61.3,27.0,30.16,WSW,248,2.3,2.3,27,0.00,CLR,OVC,0.00,0.0,WeatherDisplay:10.37,2013-02-12 23:56:00,
2013-02-12 16:01:00,61.2,26.9,30.16,SW,225,2.3,2.3,27,0.00,CLR,OVC,0.00,0.0,WeatherDisplay:10.37,2013-02-13 00:01:00,
2013-02-12 16:06:00,60.8,25.7,30.16,SSE,158,2.3,2.3,26,0.00,CLR,OVC,0.00,0.0,WeatherDisplay:10.37,2013-02-13 00:06:00,
2013-02-12 16:11:00,60.8,25.7,30.15,WSW,248,2.8,2.8,26,0.00,CLR,OVC,0.00,0.0,WeatherDisplay:10.37,2013-02-13 00:11:00,
2013-02-12 16:16:00,60.8,25.7,30.15,WNW,292,3.5,3.5,26,0.00,CLR,OVC,0.00,0.0,WeatherDisplay:10.37,2013-02-13 00:16:00,
2013-02-12 16:21:00,60.6,25.5,30.15,West,270,2.3,2.3,26,0.00,CLR,OVC,0.00,0.0,WeatherDisplay:10.37,2013-02-13 00:21:00,
2013-02-12 16:26:00,60.3,24.3,30.15,West,270,2.3,2.3,25,0.00,CLR,OVC,0.00,0.0,WeatherDisplay:10.37,2013-02-13 00:26:00,
2013-02-12 16:31:00,60.1,24.1,30.14,West,270,2.3,2.3,25,0.00,CLR,OVC,0.00,0.0,WeatherDisplay:10.37,2013-02-13 00:31:00,
2013-02-12 16:36:00,59.9,23.9,30.14,West,270,2.3,2.3,25,0.00,CLR,OVC,0.00,0.0,WeatherDisplay:10.37,2013-02-13 00:36:00,
2013-02-12 16:41:00,59.9,23.9,30.14,SSE,158,2.3,2.3,25,0.00,CLR,OVC,0.00,0.0,WeatherDisplay:10.37,2013-02-13 00:41:00,
2013-02-12 16:46:00,59.7,23.8,30.14,WNW,292,3.5,3.5,25,0.00,CLR,OVC,0.00,0.0,WeatherDisplay:10.37,2013-02-13 00:46:00,
2013-02-12 16:51:00,59.5,23.6,30.14,WSW,248,1.5,1.5,25,0.00,CLR,OVC,0.00,0.0,WeatherDisplay:10.37,2013-02-13 00:51:00,
2013-02-12 16:56:00,59.4,24.4,30.14,West,270,2.3,2.3,26,0.00,CLR,OVC,0.00,0.0,WeatherDisplay:10.37,2013-02-13 00:56:00,
2013-02-12 17:01:00,59.4,24.4,30.14,NW,315,2.3,2.3,26,0.00,CLR,OVC,0.00,0.0,WeatherDisplay:10.37,2013-02-13 01:01:00,
2013-02-12 17:06:00,59.0,24.1,30.14,West,270,2.3,2.3,26,0.00,CLR,OVC,0.00,0.0,WeatherDisplay:10.37,2013-02-13 01:06:00,
2013-02-12 17:11:00,59.0,25.0,30.14,West,270,2.3,2.3,27,0.00,CLR,OVC,0.00,0.0,WeatherDisplay:10.37,2013-02-13 01:11:00,
2013-02-12 17:16:00,58.8,24.9,30.14,West,270,2.3,2.3,27,0.00,CLR,OVC,0.00,0.0,WeatherDisplay:10.37,2013-02-13 01:16:00,
2013-02-12 17:21:00,58.6,24.7,30.14,West,270,1.5,1.5,27,0.00,CLR,OVC,0.00,0.0,WeatherDisplay:10.37,2013-02-13 01:21:00,
2013-02-12 17:26:00,58.3,25.3,30.14,SSW,202,2.3,2.3,28,0.00,CLR,OVC,0.00,0.0,WeatherDisplay:10.37,2013-02-13 01:26:00,
2013-02-12 17:31:00,58.3,26.1,30.15,WSW,248,2.3,2.3,29,0.00,CLR,OVC,0.00,0.0,WeatherDisplay:10.37,2013-02-13 01:31:00,
2013-02-12 17:36:00,57.9,25.8,30.15,WSW,248,0.0,0.5,29,0.00,CLR,OVC,0.00,0.0,WeatherDisplay:10.37,2013-02-13 01:36:00,
2013-02-12 17:41:00,57.6,26.3,30.15,SW,225,0.0,0.2,30,0.00,CLR,OVC,0.00,0.0,WeatherDisplay:10.37,2013-02-13 01:41:00,
2013-02-12 17:46:00,57.2,26.0,30.15,WSW,248,0.0,0.0,30,0.00,CLR,OVC,0.00,0.0,WeatherDisplay:10.37,2013-02-13 01:46:00,
2013-02-12 17:51:00,57.0,25.9,30.14,WSW,248,0.0,0.0,30,0.00,CLR,OVC,0.00,0.0,WeatherDisplay:10.37,2013-02-13 01:51:00,
2013-02-12 17:56:00,56.8,25.7,30.14,NW,315,0.0,0.0,30,0.00,CLR,OVC,0.00,0.0,WeatherDisplay:10.37,2013-02-13 01:56:00,
2013-02-12 18:01:00,56.7,25.5,30.14,NNW,338,0.0,0.0,30,0.00,CLR,OVC,0.00,0.0,WeatherDisplay:10.37,2013-02-13 02:01:00,
2013-02-12 18:06:00,56.1,25.9,30.14,North,0,0.0,0.0,31,0.00,CLR,OVC,0.00,0.0,WeatherDisplay:10.37,2013-02-13 02:06:00,
2013-02-12 18:11:00,55.9,25.7,30.14,NNE,22,0.0,0.0,31,0.00,CLR,OVC,0.00,0.0,WeatherDisplay:10.37,2013-02-13 02:11:00,
2013-02-12 18:16:00,55.4,26.0,30.14,NNE,22,0.0,0.0,32,0.00,CLR,OVC,0.00,0.0,WeatherDisplay:10.37,2013-02-13 02:16:00,
2013-02-12 18:21:00,55.0,27.9,30.14,NE,45,0.0,0.0,35,0.00,CLR,OVC,0.00,0.0,WeatherDisplay:10.37,2013-02-13 02:21:00,
2013-02-12 18:26:00,54.7,28.2,30.14,ESE,112,0.0,0.0,36,0.00,CLR,OVC,0.00,0.0,WeatherDisplay:10.37,2013-02-13 02:26:00,
2013-02-12 18:31:00,54.5,28.1,30.14,NNE,22,0.0,0.0,36,0.00,CLR,OVC,0.00,0.0,WeatherDisplay:10.37,2013-02-13 02:31:00,
2013-02-12 18:36:00,54.0,28.3,30.14,SE,135,0.0,0.0,37,0.00,CLR,OVC,0.00,0.0,WeatherDisplay:10.37,2013-02-13 02:36:00,
2013-02-12 18:41:00,53.8,28.1,30.14,ESE,112,0.0,0.0,37,0.00,CLR,OVC,0.00,0.0,WeatherDisplay:10.37,2013-02-13 02:41:00,
2013-02-12 18:46:00,53.6,28.6,30.14,ESE,112,0.0,0.0,38,0.00,CLR,OVC,0.00,0.0,WeatherDisplay:10.37,2013-02-13 02:46:00,
2013-02-12 18:51:00,53.6,28.6,30.14,ESE,112,0.0,0.0,38,0.00,CLR,OVC,0.00,0.0,WeatherDisplay:10.37,2013-02-13 02:51:00,
2013-02-12 18:56:00,53.2,28.9,30.14,North,0,0.0,0.0,39,0.00,CLR,OVC,0.00,0.0,WeatherDisplay:10.37,2013-02-13 02:56:00,
2013-02-12 19:01:00,53.2,28.9,30.14,NW,315,0.0,0.0,39,0.00,CLR,OVC,0.00,0.0,WeatherDisplay:10.37,2013-02-13 03:01:00,
2013-02-12 19:06:00,52.9,28.6,30.14,NNE,22,0.0,0.0,39,0.00,CLR,OVC,0.00,0.0,WeatherDisplay:10.37,2013-02-13 03:06:00,
2013-02-12 19:11:00,52.7,28.4,30.14,North,0,0.0,0.0,39,0.00,CLR,OVC,0.00,0.0,WeatherDisplay:10.37,2013-02-13 03:11:00,
2013-02-12 19:16:00,52.5,28.9,30.14,NW,315,0.0,0.0,40,0.00,CLR,OVC,0.00,0.0,WeatherDisplay:10.37,2013-02-13 03:16:00,
2013-02-12 19:21:00,52.2,28.5,30.14,WNW,292,0.0,0.0,40,0.00,CLR,OVC,0.00,0.0,WeatherDisplay:10.37,2013-02-13 03:21:00,
2013-02-12 19:26:00,52.0,29.0,30.14,NW,315,0.0,0.0,41,0.00,CLR,OVC,0.00,0.0,WeatherDisplay:10.37,2013-02-13 03:26:00,
2013-02-12 19:31:00,51.8,29.4,30.14,NNE,22,0.0,0.0,42,0.00,CLR,OVC,0.00,0.0,WeatherDisplay:10.37,2013-02-13 03:31:00,
2013-02-12 19:36:00,51.6,29.3,30.14,North,0,0.0,0.0,42,0.00,CLR,OVC,0.00,0.0,WeatherDisplay:10.37,2013-02-13 03:36:00,
2013-02-12 19:41:00,51.4,29.7,30.14,North,0,0.0,0.0,43,0.00,CLR,OVC,0.00,0.0,WeatherDisplay:10.37,2013-02-13 03:41:00,
2013-02-12 19:46:00,50.9,29.2,30.14,SSE,158,0.0,0.0,43,0.00,CLR,OVC,0.00,0.0,WeatherDisplay:10.37,2013-02-13 03:46:00,
2013-02-12 19:51:00,50.9,29.7,30.14,NW,315,0.0,0.0,44,0.00,CLR,OVC,0.00,0.0,WeatherDisplay:10.37,2013-02-13 03:51:00,
2013-02-12 19:56:00,50.7,29.6,30.14,ESE,112,0.0,0.0,44,0.00,CLR,OVC,0.00,0.0,WeatherDisplay:10.37,2013-02-13 03:56:00,
2013-02-12 20:01:00,50.5,29.4,30.14,SE,135,0.0,0.0,44,0.00,CLR,OVC,0.00,0.0,WeatherDisplay:10.37,2013-02-13 04:01:00,
2013-02-12 20:06:00,50.0,29.5,30.14,SE,135,0.0,0.0,45,0.00,CLR,OVC,0.00,0.0,WeatherDisplay:10.37,2013-02-13 04:06:00,
2013-02-12 20:11:00,50.0,29.5,30.14,SE,135,0.0,0.0,45,0.00,CLR,OVC,0.00,0.0,WeatherDisplay:10.37,2013-02-13 04:11:00,
2013-02-12 20:16:00,49.8,29.3,30.14,SW,225,0.0,0.0,45,0.00,CLR,OVC,0.00,0.0,WeatherDisplay:10.37,2013-02-13 04:16:00,
2013-02-12 20:21:00,49.6,29.7,30.14,West,270,0.0,0.0,46,0.00,CLR,OVC,0.00,0.0,WeatherDisplay:10.37,2013-02-13 04:21:00,
2013-02-12 20:26:00,49.5,29.5,30.14,NNE,22,0.0,0.0,46,0.00,CLR,OVC,0.00,0.0,WeatherDisplay:10.37,2013-02-13 04:26:00,
2013-02-12 20:31:00,49.3,29.4,30.14,ENE,68,0.0,0.0,46,0.00,CLR,OVC,0.00,0.0,WeatherDisplay:10.37,2013-02-13 04:31:00,
2013-02-12 20:36:00,49.1,29.7,30.14,North,0,0.0,0.0,47,0.00,CLR,OVC,0.00,0.0,WeatherDisplay:10.37,2013-02-13 04:36:00,
2013-02-12 20:41:00,49.1,29.7,30.14,ENE,68,0.0,0.0,47,0.00,CLR,OVC,0.00,0.0,WeatherDisplay:10.37,2013-02-13 04:41:00,
2013-02-12 20:46:00,48.7,29.4,30.14,NE,45,0.0,0.0,47,0.00,CLR,OVC,0.00,0.0,WeatherDisplay:10.37,2013-02-13 04:46:00,
2013-02-12 20:51:00,48.6,29.2,30.16,ENE,68,0.0,0.0,47,0.00,CLR,OVC,0.00,0.0,WeatherDisplay:10.37,2013-02-13 04:51:00,
2013-02-12 20:56:00,48.4,29.6,30.16,NE,45,0.0,0.0,48,0.00,CLR,OVC,0.00,0.0,WeatherDisplay:10.37,2013-02-13 04:56:00,
2013-02-12 21:00:00,48.2,29.4,30.16,ESE,112,0.0,0.0,48,0.00,CLR,OVC,0.00,0.0,WeatherDisplay:10.37,2013-02-13 05:00:00,
2013-02-12 21:05:00,48.0,29.2,30.16,SE,135,0.0,0.0,48,0.00,CLR,OVC,0.00,0.0,WeatherDisplay:10.37,2013-02-13 05:05:00,
2013-02-12 21:10:00,47.8,29.6,30.15,ENE,68,0.0,0.0,49,0.00,CLR,OVC,0.00,0.0,WeatherDisplay:10.37,2013-02-13 05:10:00,
2013-02-12 21:15:00,47.7,29.4,30.15,NE,45,0.0,0.0,49,0.00,CLR,OVC,0.00,0.0,WeatherDisplay:10.37,2013-02-13 05:15:00,
2013-02-12 21:20:00,47.7,29.4,30.15,NNE,22,0.0,0.0,49,0.00,CLR,OVC,0.00,0.0,WeatherDisplay:10.37,2013-02-13 05:20:00,
2013-02-12 21:25:00,47.3,29.1,30.15,NE,45,0.0,0.0,49,0.00,CLR,OVC,0.00,0.0,WeatherDisplay:10.37,2013-02-13 05:25:00,
2013-02-12 21:30:00,47.1,29.4,30.15,NNW,338,0.0,0.0,50,0.00,CLR,OVC,0.00,0.0,WeatherDisplay:10.37,2013-02-13 05:30:00,
2013-02-12 21:35:00,47.1,29.4,30.15,NE,45,0.0,0.0,50,0.00,CLR,OVC,0.00,0.0,WeatherDisplay:10.37,2013-02-13 05:35:00,
2013-02-12 21:40:00,46.8,29.1,30.15,North,0,0.0,0.0,50,0.00,CLR,OVC,0.00,0.0,WeatherDisplay:10.37,2013-02-13 05:40:00,
2013-02-12 21:45:00,46.6,28.9,30.15,NNE,22,0.0,0.0,50,0.00,CLR,OVC,0.00,0.0,WeatherDisplay:10.37,2013-02-13 05:45:00,
2013-02-12 21:50:00,46.6,28.9,30.15,ESE,112,0.0,0.0,50,0.00,CLR,OVC,0.00,0.0,WeatherDisplay:10.37,2013-02-13 05:50:00,
2013-02-12 21:55:00,46.4,29.2,30.15,ESE,112,0.0,0.0,51,0.00,CLR,OVC,0.00,0.0,WeatherDisplay:10.37,2013-02-13 05:55:00,
2013-02-12 22:00:00,46.2,29.1,30.15,NE,45,0.0,0.0,51,0.00,CLR,OVC,0.00,0.0,WeatherDisplay:10.37,2013-02-13 06:00:00,
2013-02-12 22:05:00,45.9,29.2,30.15,East,90,0.0,0.0,52,0.00,CLR,OVC,0.00,0.0,WeatherDisplay:10.37,2013-02-13 06:05:00,
2013-02-12 22:10:00,45.7,29.0,30.16,SE,135,0.0,0.0,52,0.00,CLR,OVC,0.00,0.0,WeatherDisplay:10.37,2013-02-13 06:10:00,
2013-02-12 22:15:00,45.7,29.5,30.16,ESE,112,0.0,0.0,53,0.00,CLR,OVC,0.00,0.0,WeatherDisplay:10.37,2013-02-13 06:15:00,
2013-02-12 22:20:00,45.5,29.3,30.16,ESE,112,0.0,0.0,53,0.00,CLR,OVC,0.00,0.0,WeatherDisplay:10.37,2013-02-13 06:20:00,
2013-02-12 22:25:00,45.5,29.3,30.16,WSW,248,1.2,0.0,53,0.00,CLR,OVC,0.00,0.0,WeatherDisplay:10.37,2013-02-13 06:25:00,
2013-02-12 22:30:00,45.1,29.0,30.16,NNE,22,1.2,1.2,53,0.00,CLR,OVC,0.00,0.0,WeatherDisplay:10.37,2013-02-13 06:30:00,
2013-02-12 22:35:00,45.1,29.5,30.16,East,90,1.2,1.2,54,0.00,CLR,OVC,0.00,0.0,WeatherDisplay:10.37,2013-02-13 06:35:00,
2013-02-12 22:40:00,45.1,29.5,30.16,SE,135,0.0,0.0,54,0.00,CLR,OVC,0.00,0.0,WeatherDisplay:10.37,2013-02-13 06:40:00,
2013-02-12 22:45:00,45.0,29.3,30.16,SSE,158,0.0,0.0,54,0.00,CLR,OVC,0.00,0.0,WeatherDisplay:10.37,2013-02-13 06:45:00,
2013-02-12 22:50:00,44.8,29.1,30.15,NE,45,0.0,0.0,54,0.00,CLR,OVC,0.00,0.0,WeatherDisplay:10.37,2013-02-13 06:50:00,
2013-02-12 22:55:00,44.6,29.0,30.15,ESE,112,0.0,0.0,54,0.00,CLR,OVC,0.00,0.0,WeatherDisplay:10.37,2013-02-13 06:55:00,
2013-02-12 23:00:00,44.6,29.0,30.15,East,90,0.0,0.0,54,0.00,CLR,OVC,0.00,0.0,WeatherDisplay:10.37,2013-02-13 07:00:00,
2013-02-12 23:05:00,44.4,29.2,30.15,NE,45,0.0,0.0,55,0.00,CLR,OVC,0.00,0.0,WeatherDisplay:10.37,2013-02-13 07:05:00,
2013-02-12 23:10:00,44.2,29.1,30.16,ESE,112,0.0,0.0,55,0.00,CLR,OVC,0.00,0.0,WeatherDisplay:10.37,2013-02-13 07:10:00,
2013-02-12 23:15:00,44.1,28.9,30.16,NE,45,0.0,0.0,55,0.00,CLR,OVC,0.00,0.0,WeatherDisplay:10.37,2013-02-13 07:15:00,
2013-02-12 23:20:00,44.1,29.4,30.16,NNE,22,0.0,0.0,56,0.00,CLR,OVC,0.00,0.0,WeatherDisplay:10.37,2013-02-13 07:20:00,
2013-02-12 23:25:00,43.9,29.2,30.16,ESE,112,0.0,0.0,56,0.00,CLR,OVC,0.00,0.0,WeatherDisplay:10.37,2013-02-13 07:25:00,
2013-02-12 23:30:00,43.9,29.2,30.16,SSW,202,0.0,0.0,56,0.00,CLR,OVC,0.00,0.0,WeatherDisplay:10.37,2013-02-13 07:30:00,
2013-02-12 23:35:00,43.9,29.2,30.16,SW,225,0.0,0.0,56,0.00,CLR,OVC,0.00,0.0,WeatherDisplay:10.37,2013-02-13 07:35:00,
2013-02-12 23:40:00,43.7,29.0,30.16,SSE,158,0.0,0.0,56,0.00,CLR,OVC,0.00,0.0,WeatherDisplay:10.37,2013-02-13 07:40:00,
2013-02-12 23:45:00,43.7,29.0,30.16,ESE,112,0.0,0.0,56,0.00,CLR,OVC,0.00,0.0,WeatherDisplay:10.37,2013-02-13 07:45:00,
2013-02-12 23:50:00,43.5,28.8,30.16,NW,315,0.0,0.0,56,0.00,CLR,OVC,0.00,0.0,WeatherDisplay:10.37,2013-02-13 07:50:00,
2013-02-12 23:55:00,43.3,29.1,30.16,ENE,68,1.2,1.2,57,0.00,CLR,OVC,0.00,0.0,WeatherDisplay:10.37,2013-02-13 07:55:00,